• In Czech Republic
  • List of Countries
  • For 7 days
  • Water Temperature
  • Satellite Maps
  • Weather Map
  • Weather Widgets
  • user-avatar
    Login

    Hourly Weather Barnsley

    Today, 23 May, Wednesday

    Time Temperature Precipitation Wind Pressure Humidity
    00:00 +7°C° 0 mm 4 mps 757 mmHg 90%
    01:00 +7°C° 0 mm 4 mps 758 mmHg 90%
    02:00 +7°C° 0 mm 4 mps 758 mmHg 90%
    03:00 +7°C° 0 mm 4 mps 758 mmHg 91%
    04:00 +7°C° 0 mm 4 mps 758 mmHg 89%
    05:00 +8°C° 0 mm 4 mps 758 mmHg 88%
    06:00 +8°C° 0 mm 4 mps 758 mmHg 87%
    07:00 +10°C° 0 mm 4 mps 758 mmHg 84%
    08:00 +10°C° 0 mm 5 mps 759 mmHg 80%
    09:00 +12°C° 0 mm 5 mps 759 mmHg 77%
    10:00 +14°C° 0 mm 5 mps 759 mmHg 74%
    11:00 +15°C° 0 mm 5 mps 759 mmHg 71%
    12:00 +16°C° 0 mm 5 mps 759 mmHg 68%
    13:00 +16°C° 0 mm 5 mps 759 mmHg 67%
    14:00 +17°C° 0 mm 5 mps 758 mmHg 66%
    15:00 +17°C° 0 mm 5 mps 758 mmHg 66%
    16:00 +17°C° 0 mm 5 mps 758 mmHg 69%
    17:00 +16°C° 0 mm 5 mps 758 mmHg 71%
    18:00 +15°C° 0 mm 5 mps 758 mmHg 74%
    19:00 +13°C° 0 mm 5 mps 758 mmHg 78%
    20:00 +12°C° 0 mm 4 mps 759 mmHg 83%
    21:00 +10°C° 0 mm 4 mps 759 mmHg 87%
    22:00 +10°C° 0 mm 4 mps 759 mmHg 88%
    23:00 +8°C° 0 mm 4 mps 759 mmHg 88%

    Tomorrow, 24 May, Thursday

    Time Temperature Precipitation Wind Pressure Humidity
    00:00 +8°C° 0 mm 4 mps 758 mmHg 89%
    01:00 +8°C° 0 mm 4 mps 758 mmHg 89%
    02:00 +8°C° 0 mm 4 mps 758 mmHg 89%
    03:00 +8°C° 0 mm 4 mps 758 mmHg 89%
    04:00 +8°C° 0 mm 4 mps 758 mmHg 87%
    05:00 +9°C° 0 mm 5 mps 757 mmHg 86%
    06:00 +10°C° 0 mm 5 mps 757 mmHg 85%
    07:00 +12°C° 0 mm 5 mps 757 mmHg 83%
    08:00 +14°C° 0 mm 5 mps 757 mmHg 80%
    09:00 +16°C° 0 mm 5 mps 757 mmHg 77%
    10:00 +17°C° 0 mm 5 mps 757 mmHg 73%
    11:00 +19°C° 0 mm 6 mps 757 mmHg 69%
    12:00 +20°C° 0 mm 6 mps 756 mmHg 65%
    13:00 +20°C° 0 mm 6 mps 756 mmHg 63%
    14:00 +20°C° 0 mm 6 mps 756 mmHg 61%
    15:00 +20°C° 0 mm 6 mps 756 mmHg 59%
    16:00 +19°C° 0 mm 6 mps 756 mmHg 62%
    17:00 +17°C° 0 mm 5 mps 755 mmHg 65%
    18:00 +16°C° 0 mm 5 mps 755 mmHg 69%
    19:00 +15°C° 0 mm 5 mps 755 mmHg 73%
    20:00 +13°C° 0 mm 4 mps 756 mmHg 77%
    21:00 +12°C° 0 mm 4 mps 756 mmHg 81%
    22:00 +11°C° 0.2 mm 4 mps 756 mmHg 84%
    23:00 +11°C° 0.2 mm 4 mps 755 mmHg 86%

    Day after tomorrow, 25 May, Friday

    Time Temperature Precipitation Wind Pressure Humidity
    00:00 +11°C° 0.2 mm 4 mps 755 mmHg 89%
    01:00 +11°C° 1.1 mm 4 mps 755 mmHg 90%
    02:00 +11°C° 1.1 mm 4 mps 755 mmHg 91%
    03:00 +11°C° 1.1 mm 4 mps 754 mmHg 92%
    04:00 +11°C° 1.2 mm 4 mps 754 mmHg 93%
    05:00 +11°C° 1.2 mm 4 mps 754 mmHg 93%
    06:00 +11°C° 1.2 mm 4 mps 754 mmHg 94%
    07:00 +12°C° 1.2 mm 4 mps 754 mmHg 94%
    08:00 +12°C° 1.2 mm 4 mps 754 mmHg 94%
    09:00 +12°C° 1.2 mm 4 mps 754 mmHg 94%
    10:00 +13°C° 0.1 mm 3 mps 754 mmHg 93%
    11:00 +14°C° 0.1 mm 3 mps 754 mmHg 92%
    12:00 +16°C° 0.1 mm 3 mps 754 mmHg 91%
    13:00 +16°C° 0 mm 3 mps 754 mmHg 90%
    14:00 +17°C° 0 mm 3 mps 754 mmHg 89%
    15:00 +18°C° 0 mm 3 mps 754 mmHg 87%
    16:00 +18°C° 0.1 mm 3 mps 754 mmHg 88%
    17:00 +17°C° 0.1 mm 3 mps 755 mmHg 90%
    18:00 +17°C° 0.1 mm 3 mps 755 mmHg 91%
    19:00 +17°C° 0 mm 3 mps 755 mmHg 92%
    20:00 +16°C° 0 mm 3 mps 756 mmHg 93%
    21:00 +14°C° 0 mm 4 mps 756 mmHg 95%
    22:00 +14°C° 0 mm 4 mps 756 mmHg 95%
    23:00 +13°C° 0 mm 4 mps 756 mmHg 95%

    26 May, Saturday

    Time Temperature Precipitation Wind Pressure Humidity
    00:00 +12°C° 0 mm 4 mps 756 mmHg 95%
    01:00 +12°C° 0 mm 4 mps 756 mmHg 94%
    02:00 +12°C° 0 mm 4 mps 756 mmHg 94%
    03:00 +12°C° 0 mm 4 mps 756 mmHg 93%
    04:00 +12°C° 0 mm 4 mps 756 mmHg 92%
    05:00 +13°C° 0 mm 4 mps 756 mmHg 91%
    06:00 +13°C° 0 mm 5 mps 756 mmHg 89%
    07:00 +14°C° 0 mm 5 mps 756 mmHg 86%
    08:00 +16°C° 0 mm 6 mps 756 mmHg 83%
    09:00 +17°C° 0 mm 6 mps 757 mmHg 80%
    10:00 +19°C° 0 mm 6 mps 756 mmHg 77%
    11:00 +21°C° 0 mm 7 mps 756 mmHg 75%
    12:00 +22°C° 0 mm 7 mps 756 mmHg 73%
    13:00 +22°C° 0 mm 7 mps 756 mmHg 72%
    14:00 +22°C° 0 mm 7 mps 756 mmHg 72%
    15:00 +22°C° 0 mm 7 mps 756 mmHg 71%
    16:00 +21°C° 0 mm 7 mps 756 mmHg 73%
    17:00 +20°C° 0 mm 7 mps 756 mmHg 75%
    18:00 +19°C° 0 mm 6 mps 756 mmHg 77%
    19:00 +17°C° 0 mm 6 mps 756 mmHg 80%
    20:00 +15°C° 0 mm 6 mps 756 mmHg 82%
    21:00 +14°C° 0 mm 5 mps 756 mmHg 84%
    22:00 +14°C° 0 mm 5 mps 756 mmHg 84%
    23:00 +13°C° 0 mm 5 mps 756 mmHg 83%

    27 May, Sunday

    Time Temperature Precipitation Wind Pressure Humidity
    00:00 +13°C° 0 mm 5 mps 756 mmHg 83%
    01:00 +13°C° 0 mm 5 mps 756 mmHg 82%
    02:00 +13°C° 0 mm 5 mps 756 mmHg 80%
    03:00 +13°C° 0 mm 5 mps 755 mmHg 79%
    04:00 +13°C° 0 mm 5 mps 755 mmHg 80%
    05:00 +14°C° 0 mm 5 mps 755 mmHg 81%
    06:00 +14°C° 0 mm 5 mps 755 mmHg 81%
    07:00 +15°C° 0 mm 6 mps 755 mmHg 79%
    08:00 +17°C° 0 mm 6 mps 755 mmHg 77%
    09:00 +19°C° 0 mm 6 mps 755 mmHg 75%
    10:00 +20°C° 0 mm 6 mps 755 mmHg 73%
    11:00 +21°C° 0 mm 6 mps 755 mmHg 71%
    12:00 +22°C° 0 mm 6 mps 755 mmHg 69%
    13:00 +23°C° 0 mm 6 mps 755 mmHg 69%
    14:00 +23°C° 0 mm 6 mps 755 mmHg 69%
    15:00 +23°C° 0 mm 6 mps 754 mmHg 68%
    16:00 +22°C° 0 mm 6 mps 754 mmHg 70%
    17:00 +21°C° 0 mm 6 mps 754 mmHg 72%
    18:00 +20°C° 0 mm 5 mps 754 mmHg 74%
    19:00 +17°C° 0 mm 5 mps 755 mmHg 77%
    20:00 +16°C° 0 mm 5 mps 755 mmHg 80%
    21:00 +14°C° 0 mm 5 mps 755 mmHg 84%
    22:00 +13°C° 0 mm 4 mps 755 mmHg 85%
    23:00 +12°C° 0 mm 4 mps 755 mmHg 86%

    28 May, Monday

    Time Temperature Precipitation Wind Pressure Humidity
    00:00 +12°C° 0 mm 4 mps 755 mmHg 87%
    01:00 +12°C° 0 mm 4 mps 755 mmHg 88%
    02:00 +11°C° 0 mm 4 mps 755 mmHg 90%
    03:00 +11°C° 0 mm 4 mps 755 mmHg 91%
    04:00 +12°C° 0 mm 4 mps 755 mmHg 91%
    05:00 +12°C° 0 mm 4 mps 755 mmHg 91%
    06:00 +13°C° 0 mm 4 mps 755 mmHg 91%
    07:00 +15°C° 0 mm 4 mps 755 mmHg 88%
    08:00 +16°C° 0 mm 5 mps 755 mmHg 86%
    09:00 +17°C° 0 mm 5 mps 755 mmHg 83%
    10:00 +20°C° 0 mm 5 mps 755 mmHg 78%
    11:00 +21°C° 0 mm 6 mps 755 mmHg 73%
    12:00 +22°C° 0 mm 6 mps 754 mmHg 69%
    13:00 +22°C° 0 mm 6 mps 754 mmHg 68%
    14:00 +22°C° 0 mm 6 mps 754 mmHg 68%
    15:00 +22°C° 0 mm 6 mps 754 mmHg 68%
    16:00 +21°C° 0 mm 6 mps 754 mmHg 71%
    17:00 +20°C° 0 mm 6 mps 754 mmHg 74%
    18:00 +19°C° 0 mm 5 mps 753 mmHg 76%
    19:00 +17°C° 0 mm 5 mps 754 mmHg 81%
    20:00 +15°C° 0 mm 5 mps 754 mmHg 86%
    21:00 +14°C° 0 mm 4 mps 754 mmHg 90%
    22:00 +13°C° 0 mm 4 mps 754 mmHg 92%
    23:00 +13°C° 0 mm 4 mps 754 mmHg 93%
    Show more